Mount Pleasant, TX

1:03 AM CDT on June 03, 2015 (GMT -0500)
Union Hill Road at CR 4640 | | Change Station
CLOSE
Current Station
Personal Weather Station
Location: Mount Pleasant, TX
Elevation: 425 ft
Nearby Weather Stations
Active Advisory: Flood Warning Active Notice: Public Information Statement

Elev 425 ft 33.09 °N, 94.90 °W | Updated 1 second ago

Clear
Clear
68.1 °F
Feels Like 68.1 °F
N
0.0
Wind Variable Wind from ESE
Gusts 0.0 mph

Today
High -- | Low -- °F
--% Chance of Precip.
Yesterday
High -- | Low -- °F
Precip. -- in
6:11 AM 8:24 PM
Full, 100% visible
Pressure 29.99 in
Visibility 10.0 miles
Clouds Clear
Dew Point 66 °F
Humidity 93%
Rainfall 0.00 in
Snow Depth Not available.
UV 0 out of 12
Pollen 5.70 out of 12
Air Quality Not available.
Flu Activity Local Activity
METAR KOSA 030535Z AUTO 00000KT 10SM CLR 21/18 A2999 RMK AO1 T02100182

More Conditions Fewer Conditions

Pressure 29.99 in
Visibility 10.0 miles
Clouds Clear
Dew Point 66 °F
Humidity 93%
Rainfall 0.00 in
Snow Depth Not available.
UV 0 out of 12
Pollen 5.70 out of 12
Air Quality Not available.
Flu Activity Local Activity
METAR KOSA 030535Z AUTO 00000KT 10SM CLR 21/18 A2999 RMK AO1 T02100182

More Conditions Fewer Conditions

10-Day Weather Forecast

×

Almanac

Astronomy

Jun. 03, 2015 Rise Set
Actual Time
Civil Twilight
Nautical Twilight
Astronomical Twilight
Moon
Length of Visible Light
Length of Day
Tomorrow will be .
, % of the Moon is Illuminated

Today's Extremes

State Highs State Lows

Community

WunderPhotos

Upload Photos

1,826,179 photos uploaded!

WunderBlogs® & News

Nearby

Air Quality

  Air Quality AQ Index Pollutant
Not available.

Snow Depth

Station Depth Elevation

Earthquake Activity

City Distance Mag. Time & Date
Minimum magnitude displayed is 2.5.

Coastal Water Temperatures

Place Temperature

Stations

Nearby Weather Stations

Station Location Temp. Windchill Dew Point Humidity Wind Precip. Elev Updated Type
                   
Flood Warning
Statement as of 10:32 AM CDT on June 02, 2015

The Flood Warning continues for
the Sulphur river below Talco.
* Until further notice... or until the warning is cancelled.
* At 10:15 am Tuesday the stage was 22.3 feet.
* Minor flooding is occurring and minor flooding is forecast.
* Flood stage is 20.0 feet.
* Forecast... the river will continue rising to near 22.4 feet by this
afternoon. Additional rises remain possible thereafter.


Lat... Lon 3338 9530 3341 9488 3331 9466 3326 9466 3331 9478